z/d,0,0,50,50,100,100,200,200,300,300,400,400,500,500,750,750,1000,1000,2000,2000,3000,3000,4000,4000,4700,4700
2016.10.14-01:00,.71,76.71,.69,78.46,.76,78.37,.72,77.74,.75,75.75,.77,76.93,.64,73.86,.42,72.11,.30,72.25,.10,85.43,.05,38.46,.15,22.33,.02,90.00
2016.10.14-02:00,.71,80.87,.70,79.16,.75,79.61,.70,76.22,.73,74.41,.73,76.63,.61,72.39,.41,71.48,.29,75.32,.09,92.35,.03,18.53,.13,16.61,.01,90.00
2016.10.14-03:00,.69,85.55,.69,79.53,.72,80.31,.68,74.40,.72,73.07,.71,76.06,.62,71.08,.41,70.52,.29,77.75,.08,98.74,.03,1.01,.12,14.29,.00,90.00
2016.10.14-04:00,.64,89.07,.65,78.97,.69,80.09,.68,72.61,.73,72.20,.72,75.71,.64,70.74,.43,70.05,.30,79.24,.08,101.42,.04,6.92,.12,18.17,.01,90.00
2016.10.14-05:00,.58,88.74,.61,77.21,.66,78.96,.70,71.26,.76,72.03,.74,75.81,.68,71.41,.45,70.22,.31,79.54,.09,99.71,.05,23.49,.13,26.30,.01,90.00
2016.10.14-06:00,.54,87.68,.58,74.59,.64,77.26,.73,70.56,.79,72.37,.76,76.21,.71,72.64,.48,70.58,.32,78.39,.09,93.71,.08,36.05,.16,34.34,.02,90.00
2016.10.14-07:00,.50,86.09,.58,71.86,.64,75.40,.76,70.45,.82,72.95,.78,76.70,.73,74.01,.50,70.83,.33,75.96,.10,84.50,.11,42.02,.18,39.21,.02,90.00
2016.10.14-08:00,.48,82.93,.59,69.80,.65,73.79,.80,70.96,.84,73.79,.79,77.35,.74,75.43,.52,71.22,.35,73.31,.11,74.30,.13,44.83,.20,41.46,.03,90.00
2016.10.14-09:00,.46,80.10,.61,68.70,.67,72.43,.83,71.71,.85,74.58,.78,77.82,.74,76.48,.52,71.77,.36,71.24,.12,64.37,.15,45.64,.21,41.44,.03,90.00
2016.10.14-10:00,.42,77.67,.64,68.75,.69,71.41,.84,72.53,.84,75.14,.75,77.71,.71,76.75,.51,72.49,.36,70.22,.13,55.28,.14,44.59,.20,38.95,.03,90.00
2016.10.14-11:00,.40,74.44,.67,69.71,.70,70.78,.84,73.37,.82,75.48,.72,76.94,.68,76.24,.49,73.60,.35,70.80,.13,48.40,.13,41.99,.18,33.92,.02,90.00
2016.10.14-12:00,.36,69.96,.69,70.42,.71,70.03,.82,73.85,.78,75.29,.67,75.26,.63,74.75,.46,74.76,.33,72.75,.13,44.42,.11,37.82,.16,26.31,.01,90.00
2016.10.14-13:00,.34,61.35,.69,70.58,.70,69.27,.78,74.03,.74,74.57,.63,72.70,.59,72.27,.43,75.46,.31,75.64,.12,43.73,.08,31.77,.14,16.79,.00,90.00
2016.10.14-14:00,.35,54.54,.68,70.30,.70,68.79,.75,74.24,.71,73.60,.61,69.70,.56,69.28,.39,75.20,.29,78.93,.11,46.95,.06,24.03,.13,7.74,.00,270.00
2016.10.14-15:00,.38,50.16,.66,69.52,.69,68.56,.73,74.64,.70,72.69,.61,67.08,.56,66.66,.36,73.90,.27,82.10,.10,54.44,.05,18.31,.12,3.11,.00,270.00
2016.10.14-16:00,.43,48.40,.63,67.79,.68,68.23,.73,75.01,.71,72.03,.64,65.49,.58,65.12,.35,71.91,.25,84.27,.11,64.06,.05,21.46,.13,5.26,.00,90.00
2016.10.14-17:00,.46,45.14,.59,65.61,.67,68.18,.73,75.62,.74,72.05,.69,65.34,.62,65.07,.36,69.81,.25,83.99,.12,71.48,.06,32.31,.14,12.97,.01,90.00
2016.10.14-18:00,.46,42.05,.56,63.67,.67,68.61,.75,76.49,.77,72.69,.74,66.14,.68,65.96,.39,67.89,.26,80.76,.14,75.13,.08,42.20,.17,22.21,.02,90.00
2016.10.14-19:00,.48,39.86,.55,62.16,.68,69.31,.75,77.35,.80,73.52,.79,67.19,.72,67.08,.43,66.17,.28,75.33,.16,75.79,.11,48.55,.19,30.17,.03,90.00
2016.10.14-20:00,.51,38.66,.57,61.43,.69,70.34,.76,78.27,.81,74.55,.82,68.50,.76,68.56,.48,65.23,.30,69.80,.17,75.25,.13,52.46,.22,35.92,.04,90.00
2016.10.14-21:00,.53,39.46,.60,60.35,.71,70.97,.75,78.76,.81,75.41,.84,69.83,.78,70.22,.51,64.97,.32,65.33,.18,74.32,.14,54.10,.24,38.97,.04,90.00
2016.10.14-22:00,.58,39.74,.64,59.04,.73,71.09,.73,78.54,.80,75.97,.83,71.23,.77,72.05,.52,65.32,.33,62.44,.17,73.49,.14,53.90,.24,39.67,.04,90.00
2016.10.14-23:00,.62,41.77,.69,58.19,.73,70.78,.70,77.41,.77,76.06,.81,72.65,.74,73.95,.51,66.29,.34,61.44,.16,73.22,.12,51.61,.22,38.19,.04,90.00
2016.10.14-24:00,.63,46.06,.73,58.07,.72,70.06,.66,74.96,.73,75.28,.77,73.72,.70,75.37,.49,67.65,.33,62.21,.14,73.76,.09,45.29,.19,34.18,.03,90.00
2016.10.15-01:00,.62,51.39,.76,58.81,.71,69.30,.63,71.20,.68,73.48,.73,74.13,.64,75.72,.46,69.10,.32,64.65,.11,76.04,.06,30.84,.16,27.71,.02,90.00
2016.10.15-02:00,.60,55.74,.77,60.30,.68,68.84,.61,66.83,.66,70.98,.69,73.82,.59,74.63,.42,70.42,.30,68.67,.10,81.07,.04,1.06,.13,19.12,.00,90.00
2016.10.15-03:00,.60,58.48,.76,61.93,.66,68.37,.61,62.93,.65,68.52,.67,73.10,.56,72.36,.40,71.44,.29,73.67,.08,88.16,.04,333.25,.11,11.04,.00,270.00
2016.10.15-04:00,.56,58.99,.73,62.83,.63,67.15,.63,60.20,.67,66.74,.67,72.51,.56,70.00,.39,72.23,.29,78.57,.08,95.34,.05,328.50,.10,7.94,.01,270.00
2016.10.15-05:00,.49,55.97,.69,62.76,.60,64.97,.66,59.06,.69,66.13,.69,72.62,.59,68.79,.41,73.06,.30,82.12,.08,98.81,.05,344.91,.10,13.56,.01,270.00
2016.10.15-06:00,.43,50.24,.65,62.25,.58,62.45,.70,59.73,.73,66.81,.72,73.60,.63,69.07,.43,73.83,.31,83.51,.09,97.38,.07,8.20,.12,23.12,.00,90.00
2016.10.15-07:00,.40,43.17,.63,61.64,.59,60.03,.74,61.58,.76,68.17,.74,74.85,.67,70.13,.45,74.07,.32,82.48,.10,91.77,.10,25.56,.16,31.47,.01,90.00
2016.10.15-08:00,.38,36.27,.62,61.27,.62,58.17,.77,64.05,.79,69.81,.76,76.01,.71,71.48,.47,73.84,.32,79.60,.11,84.01,.13,35.37,.19,36.49,.02,90.00
2016.10.15-09:00,.39,30.94,.62,61.06,.66,56.98,.81,66.48,.81,71.36,.76,76.81,.72,72.79,.48,73.40,.32,75.92,.11,75.86,.16,40.59,.22,38.47,.03,90.00
2016.10.15-10:00,.42,26.66,.64,60.67,.70,56.28,.82,68.37,.81,72.52,.74,77.08,.71,73.76,.48,72.82,.32,72.37,.12,68.10,.17,43.34,.22,38.08,.03,90.00
2016.10.15-11:00,.46,23.81,.66,60.17,.74,56.06,.82,69.61,.80,73.32,.70,76.91,.68,74.32,.46,72.31,.31,69.87,.11,60.75,.16,44.16,.21,35.34,.02,90.00
2016.10.15-12:00,.50,24.70,.69,59.94,.77,56.52,.80,70.45,.77,74.00,.66,76.53,.64,74.70,.44,72.36,.30,69.26,.10,52.96,.13,42.50,.19,29.77,.02,90.00
2016.10.15-13:00,.55,26.28,.71,58.80,.79,56.68,.77,70.41,.73,74.12,.62,75.56,.59,74.47,.41,72.85,.29,70.71,.09,45.43,.10,38.50,.17,22.32,.01,90.00
2016.10.15-14:00,.60,27.40,.72,56.63,.79,56.39,.74,69.43,.69,73.41,.57,73.51,.54,73.15,.37,73.30,.27,74.02,.08,39.71,.06,30.98,.14,14.40,.00,90.00
2016.10.15-15:00,.62,27.93,.73,54.40,.78,56.34,.71,68.25,.66,72.22,.55,70.45,.51,70.70,.34,72.84,.25,78.39,.07,38.41,.04,17.46,.13,8.56,.00,270.00
2016.10.15-16:00,.64,28.13,.72,52.53,.77,57.01,.70,67.63,.66,71.12,.55,67.30,.51,67.83,.32,70.89,.24,82.46,.07,44.22,.03,5.39,.12,8.30,.00,270.00
2016.10.15-17:00,.65,25.12,.71,51.09,.76,58.59,.71,67.90,.66,70.47,.58,65.07,.53,65.61,.33,67.80,.23,84.36,.08,54.62,.03,16.91,.12,14.65,.01,90.00
2016.10.15-18:00,.68,26.07,.71,50.02,.75,60.86,.72,68.86,.68,70.25,.62,64.11,.58,64.66,.36,64.89,.24,83.17,.11,63.03,.04,36.42,.14,24.39,.01,90.00
2016.10.15-19:00,.68,26.17,.72,49.70,.75,63.46,.73,70.16,.71,70.34,.67,64.25,.63,64.97,.40,63.00,.26,79.24,.14,67.09,.07,45.44,.17,33.22,.02,90.00
2016.10.15-20:00,.72,28.53,.75,50.08,.75,65.76,.74,71.44,.73,70.60,.72,65.10,.68,66.23,.45,62.25,.27,73.82,.17,68.46,.11,48.74,.21,39.42,.03,90.00
2016.10.15-21:00,.76,31.46,.80,51.04,.76,67.19,.74,72.29,.74,70.79,.75,66.33,.72,68.10,.49,62.49,.30,68.47,.19,68.87,.13,49.20,.24,42.79,.04,90.00
2016.10.15-22:00,.81,33.97,.86,52.59,.76,67.71,.73,72.52,.74,70.90,.77,67.83,.73,70.41,.52,63.62,.32,64.40,.20,69.12,.14,47.38,.25,43.58,.04,90.00
2016.10.15-23:00,.87,37.63,.92,54.50,.77,67.32,.71,71.72,.73,70.58,.77,69.19,.72,72.64,.53,65.30,.33,61.92,.19,69.78,.14,43.32,.24,42.14,.04,90.00
2016.10.15-24:00,.90,40.52,.98,56.94,.76,66.28,.68,69.58,.71,69.49,.75,69.95,.68,74.24,.52,67.43,.33,61.21,.17,71.38,.12,36.14,.21,38.37,.03,90.00
2016.10.16-01:00,.90,42.87,1.02,60.09,.76,64.97,.66,66.24,.69,67.58,.71,69.95,.63,74.83,.49,70.16,.33,62.65,.15,74.58,.10,23.65,.18,31.56,.01,90.00
2016.10.16-02:00,.88,46.87,1.04,63.65,.75,63.31,.65,61.97,.67,64.97,.68,69.20,.57,74.10,.45,73.37,.31,66.22,.12,80.43,.08,4.94,.14,21.57,.00,90.00
2016.10.16-03:00,.85,50.85,1.03,67.15,.74,61.42,.65,57.94,.67,62.71,.66,68.40,.53,72.29,.42,76.58,.29,71.34,.09,89.72,.07,346.25,.12,10.60,.01,270.00
2016.10.16-04:00,.78,52.87,.98,70.08,.73,59.39,.68,55.46,.68,61.90,.66,68.38,.52,70.20,.39,78.86,.27,76.93,.08,101.63,.07,338.16,.11,4.34,.01,270.00
2016.10.16-05:00,.71,53.29,.90,72.06,.71,57.43,.71,54.94,.71,62.72,.67,69.44,.53,68.67,.37,79.45,.26,81.64,.07,110.81,.07,344.82,.11,7.30,.01,270.00
2016.10.16-06:00,.64,52.06,.81,72.99,.71,56.28,.75,56.33,.74,64.92,.69,71.50,.56,68.31,.37,78.56,.27,84.31,.08,112.63,.08,3.01,.12,16.91,.01,270.00
2016.10.16-07:00,.58,45.36,.74,72.52,.73,56.20,.80,58.92,.77,67.76,.72,73.93,.60,68.78,.38,76.90,.27,84.35,.08,107.29,.10,22.52,.15,27.35,.00,90.00
2016.10.16-08:00,.59,41.30,.68,70.42,.75,56.95,.83,61.94,.79,70.54,.73,76.04,.64,69.53,.40,75.14,.28,81.99,.09,97.42,.13,35.96,.18,35.15,.01,90.00
2016.10.16-09:00,.60,36.30,.66,67.53,.79,58.57,.87,65.19,.80,73.12,.73,77.58,.66,70.46,.42,73.99,.29,78.32,.10,85.43,.16,43.35,.22,39.39,.02,90.00
2016.10.16-10:00,.65,34.36,.68,64.54,.83,60.56,.89,68.22,.80,75.16,.73,78.28,.67,71.48,.44,73.65,.30,74.68,.10,72.68,.17,46.94,.24,40.58,.03,90.00
2016.10.16-11:00,.69,30.35,.71,61.89,.86,62.43,.89,70.61,.79,76.33,.70,78.09,.67,72.53,.44,73.78,.31,71.89,.10,60.76,.17,48.28,.24,39.43,.03,90.00
2016.10.16-12:00,.75,28.55,.77,59.80,.89,63.99,.87,72.07,.75,76.31,.66,76.86,.64,73.29,.42,73.80,.30,70.18,.09,50.09,.14,47.80,.22,36.43,.03,90.00
2016.10.16-13:00,.82,31.30,.83,58.62,.90,65.37,.84,72.54,.71,75.02,.61,74.60,.59,73.58,.38,73.54,.28,70.14,.09,39.91,.11,44.43,.19,31.47,.02,90.00
2016.10.16-14:00,.86,34.38,.88,58.18,.90,66.49,.80,72.13,.66,72.70,.56,71.70,.54,73.43,.34,73.01,.26,72.57,.08,30.75,.07,33.95,.16,24.33,.01,90.00
2016.10.16-15:00,.89,37.33,.92,58.07,.88,67.03,.76,71.01,.63,69.80,.54,68.66,.50,72.58,.30,71.46,.24,77.20,.07,25.81,.04,3.84,.13,15.70,.00,90.00
2016.10.16-16:00,.89,40.51,.93,58.63,.84,67.41,.74,70.04,.62,67.62,.54,66.64,.49,71.31,.28,68.09,.22,82.60,.07,28.81,.03,324.56,.11,8.72,.00,270.00
2016.10.16-17:00,.86,43.22,.92,59.80,.81,67.95,.74,69.79,.64,66.98,.56,66.24,.50,70.04,.28,63.54,.21,86.33,.08,40.53,.04,320.11,.11,8.39,.00,270.00
2016.10.16-18:00,.83,43.69,.91,60.68,.78,68.08,.74,69.73,.67,67.16,.60,66.64,.53,68.84,.31,59.80,.21,86.16,.09,55.21,.04,344.13,.12,16.14,.00,90.00
2016.10.16-19:00,.83,41.15,.88,61.31,.76,67.77,.75,69.66,.71,67.62,.65,67.21,.58,68.03,.37,58.00,.22,81.90,.12,65.32,.06,15.90,.14,27.33,.01,90.00
2016.10.16-20:00,.86,40.16,.86,62.08,.75,67.21,.77,69.52,.74,67.94,.68,67.49,.63,67.66,.43,57.66,.24,75.41,.15,70.20,.10,33.36,.18,36.54,.02,90.00
2016.10.16-21:00,.92,41.64,.87,63.66,.77,67.11,.79,69.80,.77,68.49,.72,67.81,.67,68.07,.48,58.51,.26,68.78,.18,71.81,.14,40.50,.22,41.94,.03,90.00
2016.10.16-22:00,.99,44.03,.91,65.98,.80,67.72,.81,70.70,.80,69.49,.74,68.46,.70,69.31,.53,60.33,.29,63.49,.19,71.71,.17,42.17,.25,43.72,.04,90.00
2016.10.16-23:00,1.06,46.85,.95,68.14,.83,68.20,.82,71.40,.81,70.35,.75,69.02,.71,70.83,.56,62.77,.32,60.33,.19,71.43,.18,40.89,.26,42.79,.04,90.00
2016.10.16-24:00,1.12,50.52,.98,69.91,.84,68.01,.81,71.04,.80,70.40,.74,68.95,.68,72.01,.56,65.60,.33,59.20,.18,71.81,.17,37.48,.25,39.65,.03,90.00
2016.10.17-01:00,1.16,56.34,1.01,71.71,.84,67.23,.79,69.36,.77,69.56,.71,68.24,.64,72.67,.54,69.04,.34,59.92,.15,73.16,.15,31.16,.22,34.12,.02,90.00
2016.10.17-02:00,1.18,60.81,1.02,73.83,.84,66.06,.77,66.75,.74,68.31,.68,67.39,.59,73.01,.50,73.47,.33,62.70,.12,75.74,.12,20.42,.18,26.01,.00,90.00
2016.10.17-03:00,1.16,62.61,1.00,75.88,.83,64.41,.76,63.85,.72,67.19,.66,66.83,.55,72.93,.46,78.52,.31,67.44,.08,80.01,.09,4.45,.15,15.86,.01,270.00
2016.10.17-04:00,1.11,65.11,.92,77.52,.81,62.82,.76,61.83,.72,66.98,.65,67.20,.52,72.53,.42,83.33,.29,73.77,.06,87.32,.08,347.82,.13,6.33,.02,270.00
2016.10.17-05:00,1.02,69.86,.84,78.16,.81,61.84,.78,61.17,.72,67.79,.66,68.45,.52,71.75,.38,86.48,.27,80.33,.04,97.31,.08,341.19,.12,3.18,.02,270.00
2016.10.17-06:00,.95,69.55,.76,77.58,.82,62.04,.80,62.02,.73,69.47,.68,70.43,.54,71.05,.35,87.11,.26,85.40,.04,102.13,.07,349.44,.12,9.31,.01,270.00
2016.10.17-07:00,.94,66.82,.70,75.95,.83,63.52,.83,64.13,.74,71.63,.71,72.84,.57,70.98,.34,85.35,.25,87.56,.05,96.67,.08,8.68,.13,20.88,.00,270.00
2016.10.17-08:00,.93,65.57,.66,73.27,.85,65.50,.86,66.59,.75,73.26,.72,74.84,.60,71.20,.33,81.59,.25,85.80,.07,86.98,.11,27.53,.16,32.15,.01,90.00
2016.10.17-09:00,.92,66.19,.65,70.43,.86,67.87,.88,69.20,.76,74.20,.73,76.19,.62,71.71,.34,76.94,.25,80.72,.09,77.91,.14,39.35,.20,39.73,.02,90.00
2016.10.17-10:00,.94,67.73,.66,68.33,.87,70.42,.90,71.74,.77,74.53,.73,76.87,.64,72.42,.35,72.55,.26,74.40,.10,69.99,.16,45.28,.23,43.12,.03,90.00
2016.10.17-11:00,.97,69.32,.69,66.80,.88,72.47,.91,73.66,.77,74.18,.72,76.81,.64,72.99,.37,68.84,.27,69.08,.11,63.24,.17,47.81,.23,43.27,.03,90.00
2016.10.17-12:00,1.01,71.66,.73,65.64,.88,73.72,.90,74.76,.76,73.27,.69,76.16,.63,73.23,.38,65.87,.28,65.82,.10,57.11,.16,47.96,.22,40.71,.03,90.00
2016.10.17-13:00,1.06,74.99,.77,64.78,.87,74.11,.87,75.01,.73,72.01,.66,75.16,.60,73.27,.38,64.03,.29,65.16,.09,50.34,.12,44.77,.19,34.96,.02,90.00
2016.10.17-14:00,1.09,79.04,.81,63.82,.85,73.50,.83,74.30,.71,70.35,.62,73.76,.56,73.02,.37,63.48,.28,67.40,.08,42.47,.08,35.33,.16,25.42,.01,90.00
2016.10.17-15:00,1.08,83.49,.85,62.93,.83,72.29,.80,72.85,.69,68.49,.59,71.94,.52,72.19,.34,63.75,.26,72.23,.06,34.48,.05,9.77,.13,11.72,.01,270.00
2016.10.17-16:00,1.01,88.30,.85,62.54,.80,71.06,.77,71.11,.68,66.77,.58,69.86,.50,70.54,.32,63.94,.24,78.58,.05,31.88,.04,327.43,.11,356.88,.02,270.00
2016.10.17-17:00,.89,92.96,.84,62.56,.78,69.99,.76,69.60,.69,65.65,.59,68.12,.51,68.54,.32,63.44,.23,84.50,.05,41.45,.05,309.25,.10,349.44,.02,270.00
2016.10.17-18:00,.72,95.03,.83,63.04,.76,69.21,.77,68.86,.72,65.58,.62,67.45,.54,67.22,.33,62.30,.21,87.29,.06,56.17,.05,316.49,.11,354.72,.02,270.00
2016.10.17-19:00,.58,92.62,.83,64.27,.76,69.02,.79,69.20,.76,66.62,.67,68.07,.58,67.27,.35,61.47,.21,85.60,.08,65.28,.05,347.22,.12,10.62,.01,270.00
2016.10.17-20:00,.49,87.87,.83,66.11,.77,69.36,.82,70.20,.80,68.02,.71,69.10,.63,68.02,.39,60.97,.21,79.64,.11,68.74,.08,19.02,.16,26.82,.00,90.00
2016.10.17-21:00,.44,80.89,.84,68.18,.79,69.89,.85,71.26,.84,69.26,.75,69.88,.67,68.81,.44,60.55,.22,70.99,.14,69.72,.12,33.72,.21,36.67,.02,90.00
2016.10.17-22:00,.46,70.60,.87,70.53,.82,70.76,.88,72.53,.88,70.65,.78,70.82,.71,70.01,.49,60.66,.26,63.20,.16,69.32,.16,39.22,.25,41.18,.03,90.00
2016.10.17-23:00,.53,63.51,.90,72.56,.85,71.50,.89,73.62,.89,72.02,.79,71.84,.72,71.49,.54,61.39,.30,58.27,.17,68.43,.19,40.86,.27,42.58,.03,90.00
2016.10.17-24:00,.64,61.31,.92,74.20,.87,71.81,.89,74.16,.89,73.11,.79,72.75,.71,73.05,.56,62.98,.34,56.51,.17,67.31,.19,39.89,.27,41.52,.03,90.00
2016.10.18-01:00,.72,62.17,.93,75.69,.87,71.35,.86,73.53,.86,73.45,.76,73.08,.68,74.21,.57,65.43,.36,57.32,.16,66.26,.18,36.61,.25,38.34,.02,90.00
2016.10.18-02:00,.77,65.04,.94,77.58,.86,70.38,.83,71.74,.83,73.09,.72,72.84,.63,74.74,.55,68.80,.36,60.14,.13,65.31,.15,30.37,.21,32.94,.01,90.00
2016.10.18-03:00,.79,68.54,.92,79.38,.85,68.93,.80,69.10,.80,72.25,.69,72.16,.59,74.46,.51,73.13,.35,64.95,.10,64.51,.12,19.69,.17,24.91,.00,270.00
2016.10.18-04:00,.77,71.45,.85,79.97,.83,66.93,.79,66.26,.78,71.24,.67,71.29,.56,73.33,.47,78.20,.33,71.86,.07,65.15,.09,4.08,.14,14.55,.01,270.00
2016.10.18-05:00,.70,73.61,.76,78.93,.82,65.13,.79,64.13,.76,70.61,.66,70.70,.54,71.74,.43,83.11,.31,79.75,.05,69.57,.08,351.44,.12,6.86,.02,270.00
2016.10.18-06:00,.63,75.17,.70,76.36,.82,64.71,.80,63.41,.75,70.57,.66,70.49,.54,70.06,.39,86.37,.28,86.68,.04,78.49,.07,351.04,.11,7.70,.02,270.00
2016.10.18-07:00,.58,77.11,.67,73.69,.85,66.42,.83,64.42,.77,71.28,.67,70.82,.56,69.02,.36,86.81,.25,90.68,.04,84.58,.07,3.98,.11,16.74,.01,270.00
2016.10.18-08:00,.53,80.72,.67,72.04,.88,69.81,.86,66.75,.78,72.60,.69,71.67,.59,69.08,.34,84.50,.24,90.57,.06,82.21,.09,22.27,.13,27.87,.00,270.00
2016.10.18-09:00,.45,85.14,.66,70.51,.90,73.40,.90,69.14,.80,73.51,.72,72.08,.63,69.45,.34,79.59,.23,85.81,.08,77.49,.11,36.49,.16,36.50,.01,90.00
2016.10.18-10:00,.38,90.22,.65,69.30,.89,76.86,.92,71.43,.82,74.16,.74,72.16,.67,70.33,.36,74.22,.23,78.40,.10,72.98,.14,44.47,.18,40.89,.02,90.00
2016.10.18-11:00,.32,95.40,.67,68.50,.87,79.77,.94,73.55,.83,74.64,.75,72.15,.70,71.72,.38,70.29,.25,71.86,.11,69.28,.16,47.80,.20,41.17,.02,90.00
2016.10.18-12:00,.29,96.36,.70,68.02,.85,81.66,.95,75.20,.83,74.70,.76,71.83,.71,73.06,.40,67.58,.26,67.48,.11,66.85,.16,48.26,.20,38.29,.02,90.00
2016.10.18-13:00,.28,92.63,.75,68.43,.82,82.50,.94,76.42,.81,74.44,.75,71.45,.69,74.38,.41,66.02,.27,65.44,.10,65.14,.14,45.55,.19,31.86,.01,90.00
2016.10.18-14:00,.31,85.16,.81,69.08,.79,81.87,.91,76.90,.79,73.68,.73,71.12,.66,75.71,.40,65.86,.27,65.78,.08,63.71,.11,38.12,.17,21.65,.00,90.00
2016.10.18-15:00,.35,75.73,.86,69.54,.75,79.71,.87,76.48,.76,72.42,.71,70.89,.62,76.91,.38,66.92,.26,68.14,.05,62.00,.07,22.55,.15,9.26,.01,270.00
2016.10.18-16:00,.40,66.79,.88,69.95,.72,76.60,.84,75.32,.74,70.79,.70,70.69,.58,77.34,.35,68.28,.25,71.73,.03,59.70,.05,353.60,.14,357.69,.02,270.00
2016.10.18-17:00,.48,60.52,.87,70.78,.70,73.61,.82,74.14,.75,69.49,.70,70.81,.56,76.74,.33,69.19,.24,75.74,.01,55.95,.05,322.84,.13,350.42,.02,270.00
2016.10.18-18:00,.52,59.31,.84,72.34,.70,71.69,.82,73.75,.77,69.18,.73,71.52,.56,75.57,.33,69.25,.23,78.96,.01,53.14,.05,314.22,.12,351.81,.02,270.00
2016.10.18-19:00,.56,58.11,.81,73.91,.72,70.75,.83,74.02,.80,69.44,.76,72.28,.58,74.06,.33,67.95,.22,79.64,.02,58.62,.05,332.65,.12,4.76,.01,270.00
2016.10.18-20:00,.62,57.55,.79,75.16,.74,70.98,.85,74.97,.83,70.26,.79,73.32,.61,73.20,.35,66.29,.22,77.46,.05,59.05,.06,8.37,.15,22.36,.00,270.00
2016.10.18-21:00,.70,59.33,.80,76.50,.78,72.53,.88,76.38,.88,71.45,.83,74.54,.66,73.19,.39,64.72,.23,72.62,.08,57.65,.10,28.92,.19,35.05,.01,90.00
2016.10.18-22:00,.78,62.67,.80,77.85,.82,74.60,.89,77.53,.91,72.43,.85,75.44,.70,73.40,.44,63.12,.26,66.77,.12,56.96,.14,37.63,.23,42.25,.03,90.00
2016.10.18-23:00,.84,66.78,.81,79.37,.84,76.84,.91,78.42,.94,73.60,.87,76.43,.73,74.04,.49,62.17,.30,62.46,.15,56.84,.17,40.66,.25,45.09,.03,90.00
2016.10.18-24:00,.88,70.77,.81,80.61,.85,78.26,.91,78.72,.96,74.92,.87,77.44,.74,74.82,.54,61.89,.35,60.39,.17,57.43,.19,40.97,.26,45.01,.03,90.00
2016.10.19-01:00,.91,74.94,.82,81.56,.83,78.37,.89,78.19,.95,76.19,.85,78.42,.72,75.58,.56,62.73,.38,60.76,.18,58.31,.19,38.87,.25,42.38,.03,90.00
2016.10.19-02:00,.94,79.05,.83,82.21,.82,77.17,.87,76.47,.93,76.93,.82,79.10,.67,75.99,.56,65.04,.39,63.43,.16,59.32,.18,34.48,.23,37.48,.02,90.00
2016.10.19-03:00,.95,82.85,.85,82.81,.82,75.49,.84,73.59,.89,76.83,.77,79.17,.62,75.58,.54,68.70,.38,67.91,.14,60.49,.15,28.04,.20,30.73,.00,90.00
2016.10.19-04:00,.92,86.49,.83,83.37,.80,74.16,.82,69.94,.85,75.85,.72,78.28,.57,73.72,.51,73.26,.36,73.87,.11,62.48,.12,19.60,.16,22.08,.01,270.00
2016.10.19-05:00,.81,90.30,.76,83.70,.78,73.34,.81,66.72,.81,74.54,.68,76.62,.54,70.73,.48,78.13,.34,80.84,.08,66.51,.10,9.60,.13,11.45,.02,270.00
2016.10.19-06:00,.71,93.69,.70,83.73,.76,73.78,.83,65.90,.81,74.31,.67,75.47,.55,68.50,.45,82.97,.31,88.33,.06,73.04,.08,2.06,.11,2.31,.02,270.00
2016.10.19-07:00,.63,96.23,.67,83.68,.77,75.68,.87,67.34,.81,75.00,.68,74.66,.57,66.98,.41,86.01,.27,94.80,.05,82.36,.08,6.04,.11,2.73,.02,270.00
2016.10.19-08:00,.56,98.83,.65,84.28,.78,78.93,.90,70.12,.82,76.06,.70,73.90,.61,66.06,.37,85.61,.23,97.84,.06,89.88,.08,21.15,.12,12.50,.02,270.00
2016.10.19-09:00,.45,102.88,.63,85.20,.79,82.85,.93,73.56,.83,77.21,.72,73.43,.67,66.41,.36,81.99,.20,94.69,.07,90.76,.10,35.24,.14,22.92,.01,270.00
2016.10.19-10:00,.30,100.91,.59,85.40,.77,86.38,.94,76.80,.84,77.93,.75,72.97,.72,67.57,.37,76.44,.19,84.05,.08,87.09,.13,44.42,.16,30.29,.00,90.00
2016.10.19-11:00,.18,84.62,.57,84.40,.75,88.81,.95,79.58,.84,78.26,.77,72.75,.76,69.41,.39,71.30,.20,71.05,.10,83.03,.14,49.46,.19,33.74,.01,90.00
2016.10.19-12:00,.17,41.02,.55,82.14,.72,89.59,.96,81.68,.85,78.38,.79,73.03,.79,71.73,.42,68.12,.23,62.33,.10,79.59,.15,50.82,.20,33.22,.01,90.00
2016.10.19-13:00,.27,21.70,.56,79.76,.69,88.71,.95,83.03,.85,78.45,.80,73.83,.80,74.29,.44,67.03,.26,58.62,.09,76.91,.14,48.74,.20,29.23,.01,90.00
2016.10.19-14:00,.40,23.76,.60,78.65,.67,86.80,.93,83.51,.84,78.39,.80,74.88,.78,76.82,.45,67.76,.28,58.30,.07,73.02,.12,42.69,.19,22.88,.01,90.00
2016.10.19-15:00,.53,29.58,.64,78.11,.66,83.98,.89,82.79,.81,77.74,.77,75.63,.74,79.03,.44,70.17,.29,60.12,.04,63.66,.09,31.02,.18,15.73,.00,270.00
2016.10.19-16:00,.65,35.76,.68,77.27,.65,80.43,.84,80.77,.77,76.04,.73,75.59,.68,80.58,.41,73.89,.29,63.51,.02,30.48,.06,10.81,.16,9.11,.01,270.00
2016.10.19-17:00,.74,43.36,.68,76.58,.64,77.44,.80,78.21,.75,73.69,.70,74.72,.63,81.05,.38,77.95,.29,67.99,.02,324.87,.05,339.35,.14,2.73,.01,270.00
2016.10.19-18:00,.77,52.17,.66,76.54,.63,76.00,.79,76.26,.76,71.74,.71,73.70,.62,80.58,.37,81.21,.29,72.91,.03,317.06,.06,317.52,.13,358.80,.02,270.00
2016.10.19-19:00,.79,55.91,.64,76.67,.64,75.87,.79,75.26,.79,70.33,.73,72.81,.62,79.36,.34,82.42,.28,77.06,.03,340.19,.06,321.88,.12,4.68,.01,270.00
2016.10.19-20:00,.84,61.58,.65,77.51,.67,77.33,.82,75.44,.83,69.77,.76,72.34,.63,77.89,.31,79.76,.26,78.78,.05,12.51,.06,349.62,.13,20.28,.00,270.00
2016.10.19-21:00,.88,68.69,.68,79.60,.71,80.47,.85,77.03,.89,70.67,.81,73.00,.67,77.55,.32,74.65,.25,78.16,.08,31.83,.08,17.35,.16,33.99,.01,90.00
2016.10.19-22:00,.91,74.49,.69,81.89,.73,83.77,.88,78.90,.94,72.03,.85,73.83,.72,77.60,.36,69.24,.27,75.75,.11,42.76,.12,30.96,.19,41.38,.02,90.00
2016.10.19-23:00,.92,80.21,.70,84.41,.74,86.58,.90,80.42,.99,73.47,.89,74.32,.75,77.13,.42,64.43,.30,72.14,.15,49.64,.16,37.42,.22,44.65,.02,90.00
2016.10.19-24:00,.91,86.03,.69,87.02,.73,88.42,.91,81.43,1.02,75.15,.90,74.82,.77,76.38,.48,61.01,.33,68.62,.18,54.44,.19,40.74,.24,45.53,.03,90.00
2016.10.20-01:00,.90,90.99,.68,88.66,.70,88.17,.91,81.48,1.04,77.05,.91,75.72,.76,75.83,.53,59.74,.35,66.32,.19,57.96,.20,41.59,.25,44.18,.02,90.00
2016.10.20-02:00,.89,95.00,.68,89.61,.69,86.14,.91,80.78,1.05,79.23,.91,77.34,.74,76.19,.56,61.49,.37,66.30,.19,60.42,.20,39.61,.24,39.83,.02,90.00
2016.10.20-03:00,.86,98.08,.67,89.97,.67,82.70,.90,78.82,1.03,80.78,.88,78.60,.70,76.62,.57,65.26,.37,68.06,.17,62.90,.18,36.18,.21,33.36,.01,90.00
2016.10.20-04:00,.82,101.27,.66,90.99,.66,79.62,.87,75.99,.97,81.32,.83,78.70,.65,75.97,.55,69.94,.36,70.89,.15,66.30,.16,31.64,.19,24.91,.00,270.00
2016.10.20-05:00,.75,105.51,.61,92.73,.65,77.27,.85,72.85,.91,80.68,.77,77.14,.61,73.47,.53,74.81,.36,75.02,.12,72.52,.13,25.46,.16,13.64,.02,270.00
2016.10.20-06:00,.65,110.13,.55,93.67,.63,75.54,.84,70.70,.87,79.86,.75,75.35,.60,70.99,.50,80.00,.34,80.84,.10,82.22,.10,17.33,.15,1.30,.02,270.00
2016.10.20-07:00,.58,114.36,.51,93.02,.64,75.31,.86,70.35,.85,79.62,.75,74.38,.61,69.47,.45,84.10,.30,86.69,.08,93.48,.09,14.91,.15,357.33,.02,270.00
2016.10.20-08:00,.50,118.57,.48,92.05,.66,76.91,.88,71.58,.84,79.62,.77,73.75,.64,68.25,.40,84.52,.24,89.52,.07,102.40,.09,22.93,.15,3.74,.02,270.00
2016.10.20-09:00,.43,123.87,.47,91.69,.68,80.32,.90,74.33,.84,79.87,.79,73.67,.68,68.08,.36,81.32,.20,87.14,.07,104.38,.10,34.56,.16,14.83,.01,270.00
2016.10.20-10:00,.34,131.98,.45,90.54,.69,83.82,.92,77.53,.84,79.78,.83,73.69,.74,68.60,.36,76.26,.18,79.61,.06,98.19,.12,42.99,.18,24.44,.00,90.00
2016.10.20-11:00,.22,148.53,.41,87.43,.68,86.33,.93,80.48,.85,79.18,.86,73.65,.78,69.25,.38,70.62,.19,69.50,.06,87.41,.13,48.36,.20,31.13,.01,90.00
2016.10.20-12:00,.12,184.39,.38,81.72,.66,87.57,.94,83.05,.87,78.86,.89,74.42,.82,70.64,.42,66.39,.22,61.31,.07,75.54,.15,50.93,.21,34.71,.02,90.00
2016.10.20-13:00,.08,255.99,.37,73.26,.64,86.85,.93,84.66,.88,78.98,.92,76.28,.85,73.09,.46,65.28,.27,58.22,.06,62.68,.14,49.80,.22,34.34,.02,90.00
2016.10.20-14:00,.10,320.85,.42,68.10,.64,85.29,.92,85.38,.89,79.59,.93,79.01,.86,76.33,.50,67.19,.31,59.52,.06,45.85,.13,43.68,.21,29.99,.02,90.00
2016.10.20-15:00,.16,5.78,.49,67.06,.64,83.02,.88,84.46,.87,79.49,.90,81.44,.83,79.24,.52,70.56,.34,62.67,.05,28.82,.11,33.19,.20,23.72,.01,90.00
2016.10.20-16:00,.27,37.07,.58,69.33,.66,80.85,.84,81.54,.84,77.94,.85,82.79,.76,81.19,.50,74.44,.35,65.97,.05,15.10,.09,18.56,.18,17.02,.00,90.00
2016.10.20-17:00,.39,52.62,.62,72.29,.66,79.30,.81,77.38,.82,75.26,.80,82.96,.71,82.08,.46,78.54,.35,69.41,.05,6.56,.07,359.35,.16,9.87,.01,270.00